Lapse_Rate
0.7 -0.1 -0.0 0.5 0.3 0.2 0.4 0.8 2.7 3.0 3.2 3.3 3.5 3.6 3.7 3.1 2.8 3.5 3.8 4.0 4.6 6.3
0.4 0.4 0.5 0.6 0.6 0.4 1.0 2.7 3.2 2.8 2.4 2.7 2.8 3.2 3.4 2.8 2.9 3.6 4.1 5.0 5.6 5.8
0.9 0.8 0.8 0.9 1.0 1.0 1.3 2.5 2.4 2.0 2.1 2.2 2.5 3.1 3.1 2.8 3.4 3.7 4.4 5.6 5.6 5.7
1.5 1.6 1.5 1.8 1.3 1.4 2.4 2.6 2.4 2.2 2.0 2.1 2.3 2.9 2.7 3.0 3.9 4.7 5.0 5.1 5.7 6.2
2.4 2.1 2.0 1.9 2.0 2.4 2.4 2.6 2.5 2.3 2.0 2.2 2.7 2.9 3.1 4.0 4.4 4.7 5.4 5.8 6.1 6.3
2.4 1.7 2.0 1.7 2.5 2.8 2.1 1.7 1.7 2.2 1.9 2.6 3.4 3.6 3.7 4.2 4.9 5.5 5.8 5.9 6.1 6.1
2.2 2.6 2.4 2.4 2.6 2.5 2.3 1.9 1.7 2.1 2.6 3.4 3.6 4.4 4.4 5.1 6.0 6.2 6.6 6.7 6.5 6.2
2.3 2.4 2.8 3.1 3.0 3.1 2.6 2.6 2.5 2.8 2.9 3.3 3.9 5.0 5.1 8.0 7.2 6.8 6.8 7.0 7.2 6.8
3.0 3.3 3.8 3.7 3.3 2.8 2.6 2.4 2.4 2.7 3.0 2.9 4.0 5.3 6.2 9.1 8.0 6.9 6.7 6.8 7.2 7.0
3.8 4.2 4.0 3.6 2.9 2.3 1.8 1.9 2.0 2.5 3.0 2.6 2.8 5.2 9.0 9.2 7.9 7.0 6.7 6.7 6.8 7.0
3.6 3.9 3.7 3.0 2.1 1.7 1.9 1.9 2.1 2.3 2.8 3.0 3.8 6.2 9.1 9.1 7.8 6.9 6.6 6.9 6.9 6.8
3.4 3.2 2.5 1.7 1.6 1.8 1.9 2.0 2.2 3.4 3.7 3.8 3.7 6.5 8.4 8.9 7.6 7.2 7.2 7.1 6.8 7.4
3.0 1.9 1.3 1.6 1.8 2.3 2.1 2.8 3.8 4.2 4.5 4.8 4.3 5.3 8.8 9.0 8.0 7.4 7.2 7.0 7.4 8.5
1.5 1.4 1.6 1.8 2.0 2.3 2.3 3.4 3.1 3.7 2.9 2.8 3.8 5.5 9.3 9.4 8.4 7.6 7.0 7.3 8.0 8.3
Wind_Speed
6 4 3 3 2 1 1 2 4 5 8 9 10 9 8 4 3 5 4 6 6 6
5 5 4 3 2 2 2 4 6 8 7 8 9 9 8 3 5 5 5 6 6 6
5 5 4 3 3 3 3 4 6 6 7 8 8 8 7 5 5 5 6 7 7 7
5 4 4 3 3 3 3 5 4 5 5 5 6 6 5 6 6 7 8 9 9 11
4 4 3 3 3 3 4 5 5 6 5 6 6 5 6 8 8 9 10 10 10 12
4 4 3 3 2 3 4 4 6 5 6 7 7 7 7 7 8 10 11 12 12 13
4 3 2 2 3 3 4 5 5 5 6 7 7 9 9 9 10 10 10 12 13 14
3 3 3 3 3 4 4 4 5 6 6 7 7 7 10 11 11 10 11 12 14 14
3 2 2 2 3 4 4 4 5 5 8 10 8 18 20 18 11 9 11 13 14 14
3 3 3 3 3 6 6 7 7 7 8 10 10 19 22 22 11 10 11 13 14 15
2 3 4 4 6 6 5 6 8 9 9 10 10 21 22 23 12 11 12 13 16 17
2 3 4 6 6 6 6 7 8 9 10 9 11 21 22 21 12 11 12 14 16 17
3 4 5 5 5 5 5 7 7 10 9 13 11 19 22 20 10 11 11 15 10 23
4 4 3 4 4 4 5 6 6 9 9 10 11 11 22 23 12 11 11 11 11 12
Wind_Direction
126 127 122 119 104 50 23 347 326 344 335 329 327 324 316 299 282 277 273 268 262 269
125 121 122 99 70 48 9 340 342 332 323 324 320 315 306 292 287 277 276 273 266 265
134 127 119 99 51 30 0 338 328 324 322 317 311 306 301 296 290 282 286 285 286 287
133 124 108 89 55 19 343 323 320 313 306 301 301 304 296 285 282 283 290 289 282 283
127 111 95 62 30 346 306 314 310 303 299 301 301 288 279 285 289 285 284 281 277 276
105 87 72 47 352 313 312 311 311 307 299 295 291 288 285 277 279 276 275 276 278 278
97 90 54 358 337 324 313 310 304 288 281 287 288 293 294 285 280 275 275 274 273 276
94 58 15 327 320 297 301 307 289 299 296 299 301 299 302 300 295 286 280 279 283 279
72 33 314 317 312 311 325 316 315 312 307 311 313 314 313 311 303 292 284 285 287 285
37 346 336 326 326 352 342 329 321 317 317 309 306 313 313 311 307 293 286 286 288 287
16 318 325 347 1 349 336 325 324 320 315 303 304 314 313 316 312 295 286 282 283 288
327 314 350 7 348 332 327 327 321 315 306 303 298 310 323 318 314 299 291 290 289 294
324 2 359 339 325 318 317 310 309 306 301 297 302 308 312 322 317 308 300 296 297 301
6 338 299 312 317 313 303 304 295 300 302 306 297 294 318 325 321 312 307 317 310 307